STARLINK-33683, 63573

Orbit data source: Space-Track

STARLINK-33683, 63573 is a payload satellite owned by SpaceX/Seattle (US) in LEO that was launched on Mon, 14 Apr 2025 UTC via an FALCON 9 launch vehicle from the Air Force Eastern Test Range (AFETR). Payload-class satellites include a variety of spacecraft equipped with specific instruments for various scientific and technological missions. These include communications satellites like Starlink; space stations such as the ISS; scientific satellites like the Hubble; Earth observation satellites from companies like Planet Labs, Umbra, and HawkEye 360; GPS; miniature CubeSats for education and research; and military/defense satellites.

Loading next visibility...
Identifier
63573, 2025-076E
Orbit
LEO
Country
Flag of USUS
Related business
Manufacturer
SpaceX/Seattle
Mission
Operational Commercial Communications
Bus & Motor
STARLINK V2MO, Unknown motor
Mass
575 kg wet, ~530 kg dry
Launch date (UTC)
2025-04-14 (7 months ago)
Launch vehicle
FALCON 9
Launch site
Air Force Eastern Test Range (AFETR)
Object type
Payload
Rocket body
Debris
Shape & HBR
Box + 2 Pan, 17.7 m
Radar Cross Section
36.964 m², Large (>1 m²)

Expand to show TLE details & history
Last TLE update: 15 hours ago

TLE from 15 hours ago
0 STARLINK-33683
1 63573U 25076E   25302.50436462  .00027619  00000-0  10088-2 0  9990
2 63573  43.0016 342.8816 0002315 249.4890 110.5713 15.27600336 31767
Epoch: 2025-10-29T12:06Z
TLE epoch observation values (Epoch: 2025-10-29T12:06:17.103Z)
Latitude
-0.00003°
Longitude
123.23376°
Altitude
483.322 km
Speed
7.625 km/s
True Right ascension
22h 51m 31s
True Declination
0° 00' 00"
Sunlit
Object was in full shadow at epoch
Visualization orbit readout
Latitude
Unknown
Longitude
Unknown
Altitude
Unknown
Speed
Unknown
Apparent Right ascension
Unknown
Apparent Declination
Unknown
Sunlit
N/A
Visualization observer readout
Local Sidereal Time
22:58:16
Azimuth
Unknown
Elevation
Unknown
Doppler factor
Unknown
Orbital elements
Apogee altitude
486.522 km
Perigee altitude
483.344 km
Semi-major axis
6,863.07 km
Eccentricity
0.00023
Inclination
43.0016°
RAAN
342.8816°
Arg. of periapsis
249.489°
True anomaly
110.59613°
Mean anomaly
110.5713°
Eccentric anomaly
110.58372°
Mean motion
3.81738 °/min
Orbital period
94.31 mins
BSTAR
0.0010088
Loading maneuver chart data...
Computing Atmospheric mass density...
Loading historical data...
Loading historical data...
Loading historical data...
Loading historical data...
Loading historical data...
Loading historical data...
Loading historical data...

Documentation

Showing up to 5 results
|